This demonstration page uses our WeatherBlox Daily Observations layout. Learn more.

Left ArrowRight Arrow

Hourly Observations for March 21, 2015

Temp ( °F °C ) Dew Point ( °F °C ) Humidity (%) Winds ( mph kmh ) Pressure ( in mb ) Visibility ( mi km ) Precip ( " mm )
12:15 am 00:15 Cloudy with Mist and Fog 34 1 34 1 100 100 N 5 7 30.18 1022 5 8 N/A
12:35 am 00:35 Cloudy with Mist and Fog 34 1 34 1 100 100 NNE 5 7 30.18 1022 5 8 N/A
12:55 am 00:55 Cloudy with Mist and Fog 34 1 34 1 100 100 NNE 5 7 30.18 1022 5 8 N/A
1:15 am 01:15 Cloudy with Mist and Fog 34 1 34 1 100 100 NE 5 7 30.15 1021 5 8 N/A
1:35 am 01:35 Cloudy with Mist and Fog 34 1 34 1 100 100 N N/A 30.18 1022 4 6 N/A
1:55 am 01:55 Cloudy with Mist and Fog 34 1 34 1 100 100 NNW 5 7 30.18 1022 5 8 N/A
2:15 am 02:15 Cloudy with Mist and Fog 34 1 34 1 100 100 N N/A 30.15 1021 5 8 N/A
2:35 am 02:35 Cloudy with Mist and Fog 34 1 34 1 100 100 N 5 7 30.15 1021 5 8 N/A
2:55 am 02:55 Cloudy 34 1 34 1 100 100 N 3 6 30.15 1021 7 11 N/A
3:15 am 03:15 Cloudy 34 1 34 1 100 100 N N/A 30.15 1021 7 11 N/A
3:35 am 03:35 Cloudy 34 1 34 1 100 100 N N/A 30.15 1021 7 11 N/A
3:55 am 03:55 Cloudy 34 1 34 1 100 100 N N/A 30.15 1021 7 11 N/A
4:15 am 04:15 Cloudy 34 1 34 1 100 100 N N/A 30.15 1021 7 11 N/A
4:35 am 04:35 Cloudy with Mist and Fog 34 1 34 1 100 100 N N/A 30.15 1021 5 8 N/A
4:55 am 04:55 Cloudy with Mist and Fog 34 1 34 1 100 100 N N/A 30.15 1021 5 8 N/A
5:15 am 05:15 Cloudy with Mist and Fog 34 1 34 1 100 100 N N/A 30.15 1021 5 8 N/A
5:35 am 05:35 Cloudy with Mist and Fog 34 1 34 1 100 100 N N/A 30.15 1021 5 8 N/A
5:55 am 05:55 Cloudy with Mist and Fog 34 1 34 1 100 100 N N/A 30.15 1021 3 5 N/A
6:15 am 06:15 Cloudy with Mist and Fog 32 undefined 32 undefined 100 100 N N/A 30.12 1020 3 5 N/A
6:35 am 06:35 Cloudy with Mist and Fog 34 1 34 1 100 100 N N/A 30.12 1020 4 6 N/A
6:55 am 06:55 Cloudy with Mist and Fog 34 1 34 1 100 100 N N/A 30.12 1020 3 5 N/A
7:15 am 07:15 Cloudy with Mist and Fog 34 1 34 1 100 100 N N/A 30.15 1021 2 3 N/A
7:35 am 07:35 Cloudy with Mist and Fog 34 1 34 1 100 100 N N/A 30.15 1021 2 2 N/A
7:55 am 07:55 Cloudy with Mist and Fog 34 1 34 1 100 100 N N/A 30.15 1021 2 3 N/A
8:15 am 08:15 Cloudy with Mist and Fog 34 1 34 1 100 100 N N/A 30.15 1021 3 5 N/A
8:35 am 08:35 Cloudy with Mist and Fog 34 1 34 1 100 100 N N/A 30.15 1021 3 5 N/A
8:55 am 08:55 Cloudy with Mist and Fog 34 1 34 1 100 100 N N/A 30.15 1021 3 4 N/A
9:15 am 09:15 Cloudy with Mist and Fog 34 1 34 1 100 100 WSW 3 6 30.15 1021 3 4 N/A
9:35 am 09:35 Cloudy with Mist and Fog 36 2 36 2 100 100 SW 3 6 30.15 1021 3 5 N/A
9:55 am 09:55 Cloudy with Mist and Fog 36 2 36 2 100 100 N N/A 30.15 1021 4 6 N/A
10:15 am 10:15 Cloudy with Mist and Fog 36 2 36 2 100 100 SSW 3 6 30.15 1021 5 8 N/A
10:35 am 10:35 Cloudy with Mist and Fog 37 3 37 3 100 100 SSW 5 7 30.15 1021 5 8 N/A
10:55 am 10:55 Cloudy 37 3 37 3 100 100 SW 5 7 30.15 1021 7 11 N/A
11:15 am 11:15 Cloudy 41 5 39 4 93 93 SSW 3 6 30.15 1021 7 11 N/A
11:35 am 11:35 Cloudy 43 6 41 5 93 93 S 5 7 30.12 1020 7 11 N/A
11:55 am 11:55 Cloudy 45 7 41 5 87 87 S 3 6 30.12 1020 10 16 N/A
12:15 pm 12:15 Partly Cloudy 46 8 43 6 87 87 S 5 7 30.12 1020 10 16 N/A
12:35 pm 12:35 Sunny 50 10 45 7 82 82 SSW 8 13 30.09 1019 10 16 N/A
12:55 pm 12:55 Partly Cloudy 54 12 45 7 72 72 S 6 9 30.06 1018 10 16 N/A
1:15 pm 13:15 Mostly Cloudy 54 12 45 7 72 72 WSW 3 6 30.06 1018 10 16 N/A
1:35 pm 13:35 Cloudy 54 12 45 7 72 72 SW 7 11 30.03 1017 10 16 N/A
1:55 pm 13:55 Cloudy 55 13 45 7 67 67 S 10 17 30.03 1017 10 16 N/A
2:15 pm 14:15 Cloudy 55 13 43 6 63 63 SW 6 9 30.00 1016 10 16 N/A
2:35 pm 14:35 Partly Cloudy 59 15 45 7 59 59 SW 10 17 30.00 1016 10 16 N/A
2:55 pm 14:55 Partly Cloudy 59 15 43 6 55 55 SW 8 13 29.97 1015 10 16 N/A
3:15 pm 15:15 Sunny 59 15 43 6 55 55 WSW 6 9 29.97 1015 10 16 N/A
3:35 pm 15:35 Partly Cloudy 61 16 45 7 55 55 SSW 10 17 29.97 1015 10 16 N/A
3:55 pm 15:55 Partly Cloudy 61 16 43 6 52 52 S 10 17 29.97 1015 10 16 N/A
4:15 pm 16:15 Sunny 61 16 43 6 52 52 SSW 10 17 29.94 1014 10 16 N/A
4:35 pm 16:35 Partly Cloudy 61 16 45 7 55 55 SSW 6 9 29.94 1014 10 16 N/A
4:55 pm 16:55 Partly Cloudy 63 17 45 7 52 52 WSW 8 13 29.94 1014 10 16 N/A
5:15 pm 17:15 Sunny 63 17 43 6 49 49 SSW 7 11 29.94 1014 10 16 N/A
5:35 pm 17:35 Sunny 63 17 43 6 49 49 SSW 6 9 29.94 1014 10 16 N/A
5:55 pm 17:55 Sunny 63 17 43 6 49 49 SW 5 7 29.94 1014 10 16 N/A
6:15 pm 18:15 Sunny 63 17 45 7 52 52 SSW 7 11 29.94 1014 10 16 N/A
6:35 pm 18:35 Sunny 61 16 43 6 52 52 S 5 7 29.94 1014 10 16 N/A
6:55 pm 18:55 Sunny 61 16 43 6 52 52 N N/A 29.94 1014 10 16 N/A
7:15 pm 19:15 Sunny 59 15 45 7 59 59 N N/A 29.94 1014 10 16 N/A
7:35 pm 19:35 Clear 55 13 45 7 67 67 N N/A 29.94 1014 10 16 N/A
7:55 pm 19:55 Clear 54 12 43 6 67 67 N N/A 29.97 1015 10 16 N/A
8:15 pm 20:15 Clear 54 12 43 6 67 67 NW 7 11 29.97 1015 10 16 N/A
8:35 pm 20:35 Clear 55 13 41 5 59 59 NW 13 20 29.97 1015 10 16 N/A
8:55 pm 20:55 Clear 57 14 39 4 51 51 NW 15 24 29.97 1015 10 16 N/A
9:15 pm 21:15 Clear 57 14 39 4 51 51 WNW 13 20 29.97 1015 10 16 N/A
9:35 pm 21:35 Clear 57 14 39 4 51 51 WNW 7 11 29.97 1015 10 16 N/A
9:55 pm 21:55 Clear 57 14 37 3 48 48 N N/A 30.00 1016 10 16 N/A
10:15 pm 22:15 Clear 54 12 39 4 58 58 S 3 6 30.00 1016 10 16 N/A
10:35 pm 22:35 Clear 52 11 39 4 62 62 WSW 3 6 29.97 1015 10 16 N/A
10:55 pm 22:55 Clear 52 11 39 4 62 62 W 3 6 29.97 1015 10 16 N/A
11:15 pm 23:15 Clear 52 11 39 4 62 62 N N/A 29.97 1015 10 16 N/A
11:35 pm 23:35 Clear 50 10 39 4 67 67 N N/A 30.00 1016 10 16 N/A
11:55 pm 23:55 Clear 48 9 37 3 66 66 NNW 9 15 30.03 1017 10 16 N/A

Powered by AerisWeather